GW1539 Weather Reports


time (UTC)temp
C
wind
direction
speed
KPH
gust
KPH
rain 1hr
cm
rain 24hr
cm
rain mn
cm
humidity
%
barometer
mb
20260901140025 21 244 4.8 11.3 0.00 0.00 0.00 68 1017.7
20260901133042 22 330 1.6 12.9 0.00 0.00 0.00 65 1017.7
20260901131524 22 245 3.2 9.7 0.00 0.00 0.00 65 1017.9
20260901124533 23 259 3.2 9.7 0.00 0.00 0.00 61 1018.1
20260901123035 23 250 3.2 8.0 0.00 0.00 0.00 60 1018.1
20260901121523 22 244 1.6 6.4 0.00 0.00 0.00 62 1018.3
20260901114531 22 251 3.2 12.9 0.00 0.00 0.00 62 1018.4
20260901113029 22 236 1.6 11.3 0.00 0.00 0.00 65 1018.4
20260901110034 22 320 1.6 6.4 0.00 0.00 0.00 61 1018.5
20260901104533 22 221 0.0 12.9 0.00 0.00 0.00 62 1018.5
20260901101545 21 249 4.8 11.3 0.00 0.00 0.00 61 1018.6
20260901094536 21 279 3.2 11.3 0.00 0.00 0.00 66 1018.8
20260901091535 20 255 3.2 6.4 0.00 0.00 0.00 72 1018.8
20260901084531 19 244 3.2 11.3 0.00 0.00 0.00 73 1018.7
20260901083028 20 236 0.0 8.0 0.00 0.00 0.00 72 1018.6
20260901081529 20 247 0.0 11.3 0.00 0.00 0.00 73 1018.4
20260901074530 19 254 0.0 8.0 0.00 0.00 0.00 73 1018.3
20260901073034 19 267 0.0 0.0 0.00 0.00 0.00 80 1018.1
20260901070046 17 267 0.0 0.0 0.00 0.00 0.00 86 1018.2
20260901063034 16 267 0.0 0.0 0.00 0.00 0.00 91 1018.2
20260901061524 16 267 0.0 0.0 0.00 0.00 0.00 94 1018.1
20260901054533 15 267 0.0 0.0 0.00 0.00 0.00 95 1017.9
20260901051540 13 267 0.0 0.0 0.00 0.00 0.00 95 1017.6
20260901050034 13 267 0.0 0.0 0.00 0.00 0.00 95 1017.6
20260901043032 12 267 0.0 0.0 0.00 0.00 0.00 95 1017.3
20260901040054 12 267 0.0 1.6 0.00 0.00 0.00 94 1017.0
20260901034538 12 267 0.0 0.0 0.00 0.00 0.00 94 1017.1
20260901031539 12 267 0.0 0.0 0.00 0.00 0.00 94 1017.1
20260901030043 13 267 0.0 0.0 0.00 0.00 0.00 94 1017.2
20260901023043 13 267 0.0 0.0 0.00 0.00 0.00 93 1017.2
20260901021534 13 267 0.0 0.0 0.00 0.00 0.00 93 1017.1
20260901014538 13 267 0.0 0.0 0.00 0.00 0.00 93 1016.9
20260901013048 13 267 0.0 0.0 0.00 0.00 0.00 93 1016.9
20260901010050 13 267 0.0 0.0 0.00 0.00 0.00 93 1016.9
20260901004527 13 267 0.0 0.0 0.00 0.00 0.00 92 1016.8
20260901003025 13 267 0.0 0.0 0.00 0.00 0.00 92 1016.7
20260901000038 14 267 0.0 0.0 0.00 0.00 0.00 92 1016.4
20260831234532 14 267 0.0 0.0 0.00 0.00 0.00 92 1016.3
20260831231537 14 267 0.0 0.0 0.00 0.00 0.00 91 1016.0
20260831224536 15 267 0.0 0.0 0.00 0.00 0.00 91 1015.8
20260831223031 15 267 0.0 0.0 0.00 0.00 0.00 90 1015.6
20260831220104 15 267 0.0 1.6 0.00 0.00 0.00 89 1015.6
20260831214533 15 267 0.0 1.6 0.00 0.00 0.00 89 1015.5
20260831211542 15 267 0.0 0.0 0.00 0.00 0.00 90 1015.1
20260831210039 15 267 0.0 0.0 0.00 0.00 0.00 90 1014.9
20260831204529 15 267 0.0 1.6 0.00 0.00 0.00 88 1014.7
20260831201538 16 267 0.0 0.0 0.00 0.00 0.00 88 1014.5
20260831200033 16 267 0.0 0.0 0.00 0.00 0.00 88 1014.4
20260831193037 17 267 0.0 0.0 0.00 0.00 0.00 86 1014.2
20260831191531 17 267 0.0 0.0 0.00 0.00 0.00 85 1014.2
20260831184533 18 267 0.0 0.0 0.00 0.00 0.00 83 1013.7
20260831183036 18 267 0.0 1.6 0.00 0.00 0.00 83 1013.5
20260831180038 19 267 0.0 0.0 0.00 0.00 0.00 80 1013.2
20260831174535 19 267 0.0 0.0 0.00 0.00 0.00 79 1013.2
20260831171542 21 267 0.0 0.0 0.00 0.00 0.00 76 1013.0
20260831164538 22 267 0.0 3.2 0.00 0.00 0.00 70 1013.2
20260831163039 23 267 0.0 6.4 0.00 0.00 0.00 67 1013.3
20260831160037 25 277 1.6 8.0 0.00 0.00 0.00 58 1013.3
20260831154533 25 268 4.8 11.3 0.00 0.00 0.00 57 1013.4
20260831153026 25 255 1.6 6.4 0.00 0.00 0.00 60 1013.3
20260831150036 26 275 1.6 9.7 0.00 0.00 0.00 57 1013.5
20260831143040 25 265 1.6 6.4 0.00 0.00 0.00 63 1013.6
20260831141530 25 292 1.6 8.0 0.00 0.00 0.00 63 1013.5